Back to catalog

SL-12 DEB

AliveLEO
NORAD 18766·DEBRIS·🇷🇺 Russia

Launched May 30, 1985 from Baikonur Cosmodrome

Loading…

Next Passes (next 24 hours)

TLE

FreshSource: Space-Track

Epoch: Sep 14, 2026, 03:09 UTC

1 18766U 85042J   26257.13187462  .00002469  00000-0  71762-3 0  9998
2 18766  66.5615 147.0486 0043119 168.6614 349.9003 14.45444476  2743

Track SL-12 DEB in real time with AllMySat

Download on the App Store